Weather Service Report


185 
ASUS41 KAKQ 291215
RWRAKQ

REGIONAL WEATHER ROUNDUP
NATIONAL WEATHER SERVICE WAKEFIELD VA
800 AM EDT THU JUN 29 2017

Note: "fair" indicates few or no clouds below 12,000 feet with no
significant weather and/or obstructions to visibility. * = Denotes
station may not report precipitation (e.g., rain,snow,etc.),
thunder or fog.

VAZ042-051-052>054-056-291300-
NORTHERN VIRGINIA
  
CITY           SKY/WX    TMP DP  RH WIND       PRES   REMARKS
WASH NATIONAL  PTSUNNY   70  62  76 S10       30.17S                  
DULLES         PTSUNNY   67  55  65 S9        30.16S                  
FORT BELVOIR   SUNNY     71  60  67 CALM      30.16F                  
QUANTICO       PTSUNNY   69  61  75 S13       30.18S                  
FREDERICKSBRG* SUNNY     66  59  80 S6        30.18S                  
STAFFORD*      CLOUDY    64  61  89 SE5       30.22R                  
WARRENTON      MOSUNNY   69  55  60 SW5       30.16S                  
CULPEPER*      MOSUNNY   66  59  77 CALM      30.17F                  
MANASSAS*      CLOUDY    68  58  70 S3        30.16F                  
LEESBURG*      MOSUNNY   66  61  82 SW3       30.16S                  
WINCHESTER     CLOUDY    66  54  63 SW7       30.15R                  
FRONT ROYAL*   CLOUDY    68  55  64 S9        30.15R                  
LURAY*         CLOUDY    64  57  77 S5        30.17S                  
$$

VAZ048-049-060>072-079>083-291300-
CENTRAL AND SOUTH CENTRAL VIRGINIA
  
CITY           SKY/WX    TMP DP  RH WIND       PRES   REMARKS
RICHMOND       CLOUDY    69  61  75 SW7       30.22R                  
CHESTERFIELD*  NOT AVBL                                               
PETERSBURG*    CLOUDY    63  60  90 CALM      30.22R                  
HANOVER        SUNNY     70  59  68 S5        30.22R                  
TAPPAHANNOCK*  SUNNY     67  62  84 S5        30.21S                  
QUINTON*       FAIR      67  63  85 MISG      30.21R                  
CHARLOTTSVILLE CLOUDY    65  59  81 CALM      30.18R                  
GORDONSVILLE*  CLOUDY    62  58  87 CALM      30.18R                  
ORANGE*        CLOUDY    61  55  82 CALM      30.18S                  
LOUISA*        SUNNY     66  61  82 S6        30.19R                  
BUMPASS*       FAIR      62  58  87 SE3       30.19S                  
FARMVILLE*     CLOUDY    66  56  69 SW3       30.20R                  
CREWE*         FAIR      65  60  84 CALM      30.22R                  
FORT PICKETT*  FAIR      65  60  84 SW5       30.21S                  
CHASE CITY*    FAIR      67  63  85 CALM      30.22R                  
CLARKSVILLE*   FAIR      64  61  88 S5        30.22R                  
SOUTH HILL*    CLOUDY    66  62  86 S5        30.28R                  
LAWRENCEVILLE* FAIR      66  60  80 S5        30.22R                  
EMPORIA*       CLOUDY    64  61  88 SE3       30.24R                  
$$

VAZ088>098-291300-
SOUTHEAST VIRGINIA
  
CITY           SKY/WX    TMP DP  RH WIND       PRES   REMARKS
NORFOLK        NOT AVBL                                               
VIRGINIA BEACH MOSUNNY   72  66  81 S7        30.22R                  
NORFOLK NAVAL  MOSUNNY   73  63  70 SW7       30.24R                  
WEST POINT*    CLOUDY    71  62  73 S3        30.24R                  
SALUDA*        FAIR      71  64  80 SW8       30.21R                  
NEWPORT NEWS   CLOUDY    71  63  75 SW6       30.23R                  
LANGLEY AFB    SUNNY     72  64  77 SW8       30.22R                  
FORT EUSTIS    CLOUDY    73  64  73 S5        30.21R                  
WILLIAMSBURG*  MOSUNNY   70  63  78 CALM      30.24R                  
HR EXEC AP*    FAIR      66  64  94 SW3       30.22R                  
FRANKLIN*      PTSUNNY   70  63  78 S3        30.24R                  
US460-WAKEFLD  CLOUDY    68  63  84 CALM      30.22R                  
$$

VAZ020-022-025-037-045-291300-
WEST CENTRAL AND SOUTHWEST VIRGINIA
  
CITY           SKY/WX    TMP DP  RH WIND       PRES   REMARKS
STAUNTON*      CLOUDY    59  55  87 CALM      30.22R                  
WAYNESBORO*    CLOUDY    62  57  83 CALM      30.21R                  
HOT SPRINGS VA CLOUDY    61  46  59 W15       30.27F                  
LYNCHBURG      MOSUNNY   65  59  81 S6        30.20R                  
DANVILLE       CLOUDY    64  61  90 CALM      30.21S                  
SOUTH BOSTON*  FAIR      67  62  85 CALM      30.21S                  
MARTINSVILLE   CLOUDY    62  59  90 CALM      30.24R                  
ROANOKE        PTSUNNY   66  59  78 CALM      30.22S                  
BLACKSBURG     SUNNY     64  57  77 CALM      30.26F                  
DUBLIN*        SUNNY     62  55  78 CALM      30.25F                  
MARION*        CLOUDY    63  56  80 CALM      30.27F                  
HILLSVILLE*    SUNNY     63  54  70 CALM      30.25S                  
RICHLANDS*     FAIR      66  12  12 CALM      30.23S                  
WISE*          CLOUDY    68  55  64 CALM      30.24S                  
ABINGDON*      CLOUDY    65  61  87 CALM      30.23R                  
$$

MDZ021>025-VAZ099-100-291300-
SOUTHERN MARYLAND AND THE DELMARVA PENINSULA
  
CITY           SKY/WX    TMP DP  RH WIND       PRES   REMARKS
PATUXENT RIVER PTSUNNY   70  63  78 SW10      30.18S                  
BAY BRIDGE APT SUNNY     73  63  68 S10       30.17S                  
LEONARDTOWN    CLOUDY    68  61  77 SW6       30.20S                  
DOVER          SUNNY     70  67  90 S13       30.17S                  
GEORGETOWN     CLOUDY    70  61  73 S9        30.20S                  
EASTON         NOT AVBL                                               
CAMBRIDGE      SUNNY     72  64  78 S8        30.19S                  
SALISBURY      CLOUDY    67  64  90 S8        30.21R                  
OCEAN CITY     MOSUNNY   70  65  84 VRB5      30.22R                  
WALLOPS ISLAND CLOUDY    70  67  90 S9        30.23R                  
ACCOMACK*      MOSUNNY   72  65  79 S5        30.23R                  
$$

NCZ012>017-030>032-291300-
NORTH CENTRAL AND EASTERN NORTH CAROLINA
  
CITY           SKY/WX    TMP DP  RH WIND       PRES   REMARKS
ROANOKE RAPIDS FAIR      64  63  94 CALM      30.23R                  
RALEIGH        CLOUDY    68  62  81 W3        30.23R                  
ELIZABETH CITY MOSUNNY   72  69  90 SW3       30.23R                  
AHOSKIE*         N/A     64  63  96 CALM      30.23S                  
EDENTON*       MOSUNNY   74  68  79 CALM      30.24R                  
CURRITUCK*     MOSUNNY   73  69  87 CALM      30.24R                  
KILL DEVIL HLS MOSUNNY   73  67  80 CALM      30.23R                  
MANTEO         MOSUNNY   73  66  78 S5        30.25R                  
CAPE HATTERAS  NOT AVBL                                               
TARBORO*       NOT AVBL                                               
GOLDSBORO      SUNNY     68  67  96 CALM      30.22R                  
WASHINGTON       N/A    N/A N/A N/A CALM      30.24R                  
GREENVILLE     CLOUDY    66  64  94 CALM      30.24R                  
NEW BERN       MOSUNNY   71  68  90 CALM      30.24R                  
WILMINGTON     MOSUNNY   72  64  76 CALM      30.22R                  
$$

VAZ048-291300-
ELSEWHERE
  
CITY           SKY/WX    TMP DP  RH WIND       PRES   REMARKS
HARRISBURG PA  CLOUDY    68  57  68 VRB5      30.12F                  
BALTIMORE      PTSUNNY   68  60  75 VRB5      30.15S                  
ANNAPOLIS      SUNNY     68  61  78 S6        30.16F                  
ANDREWS AFB    SUNNY     69  58  67 SW12      30.16S                  
PHILADELPHIA   CLOUDY    70  59  68 S12       30.17S                  
HENDERSON NC   CLOUDY    63  57  82 SW5       30.23R                  
GREENSBORO     PTSUNNY   67  62  84 SW7       30.22R                  
ROCKY MOUNT    CLOUDY    66  64  93 CALM      30.22S                  
$$

VAZ100-291300-
MARINE
  
STATION/POSITION TIME  TEMP    WIND        PRES    WAVE   SWELL
                       AIR SEA DIR/SP/G            HT/PER HT/PER
                 (UTC) (F)     (DEG/KT/KT) (MB)    (FT/S) (FT/S)
BRANDYWINE LGT   1142   69     210/ 15/ 18 1022.5R
CAPE MAY NJ      1148   69 70  160/  9/ 13 1022.1R
LEWES DE         1148   71 67  210/  7/ 11 1022.3R
15NM E FENWICK I 1150   69 67  180/  8/  8 1023.8R   1/ 3   2/ 7
OCEAN-CITY-INLET 1148   68 68  200/  6/  8 1023.5R
WACHAPREAGUE VA  1148   73 75  170/  7/  8 1023.2R
THOMAS POINT MD  1200   70 75  210/ 11/ 12   N/A
GOOSES REEF MD   1200   72 76  210/ 14/ 16 1022.5    2/ 3
COVE POINT MD    1148   70     230/ 12/ 17 1022.5F
SOLOMONS ISLAND  1148   71 78  210/ 10/ 14   N/A
BISHOPS HEAD MD  1148   73 74  210/ 14/ 15 1022.5R
PINEY POINT MD   1148          240/ 11/ 15   N/A
POTOMAC MD       1200   71 77  230/ 16/ 17 1021.6    2/ 3
CAMBRIDGE MD     1148   74 80              1022.5F
LEWISETTA VA     1148   68 78  240/  9/ 11 1022.5R
RAPPAHANNOCK LGT 1148          200/ 12/ 14 1023.9R
STINGRAY PT      1150   73     240/ 14/ 16 1022.9R
YORK RVR RNG VA  1148   72     230/ 11/ 12 1023.5R
YORKTOWN VA      1148   71 78  200/  6/  9 1023.0R
JAMESTOWN VA     1200   70 80   CALM  /  2   N/A
DOMINION TERM VA 1148   71     220/  6/  8 1023.5R
KIPTOPEKE VA     1148      72  190/  8/  9   N/A
CHES BAY BRIDGE  1148   72 75  210/  9/ 11 1023.1R
CAPE HENRY VA    1148   72     180/  5/  7   N/A
WILLOUBY STN VA  1148   72     220/ 10/ 11 1023.1R
S CRANEY ISL VA  1148   71     200/  5/  7 1023.0R
CAPE HENRY BUOY  1130      71                N/A     1/ 6
1ST LANDING BUOY 1200   73 74              1023.6    1
CAPE CHARLES BUO 1151      71                N/A     1/ 9
64NM E OF VA BCH 1150   73 73  160/  8/  8 1024.3R   1/ 8   2/ 8
DUCK PIER NC     1148   73 72  150/  8/  9 1023.3R
44100 DUCK FRF   1105      72                N/A     2/ 5
OREGON INLET NC  1142   74 76  110/  4/  6 1023.7R
HATTERAS NC      1148   77 77   80/  4/  6 1023.5R
DIAMOND SHLS NC  1150   79 83  100/  8/ 10 1023.6R   2/ 7   2/ 7
CAPE LOOKOUT NC  1200   78      40/  9/ 11 1023.1R
$$
  

Return to Home page


Western Regional Climate Center, wrcc@dri.edu